| time (UTC) | temp F | wind direction | speed knots | gust knots | rain 1hr in | rain 24hr in | rain mn in | humidity % | barometer mb |
| 20260502234720 | 58 | 59 | 7.0 | 11.3 | 0.00 | 0.12 | 0.06 | 54 | 1015.6 |
| 20260502233711 | 58 | 46 | 5.2 | 10.4 | 0.00 | 0.12 | 0.06 | 54 | 1015.6 |
| 20260502232708 | 58 | 29 | 6.1 | 12.2 | 0.00 | 0.12 | 0.06 | 54 | 1015.6 |
| 20260502231703 | 58 | 50 | 7.0 | 12.2 | 0.00 | 0.12 | 0.06 | 53 | 1015.6 |
| 20260502224436 | 59 | 31 | 7.8 | 13.0 | 0.00 | 0.12 | 0.06 | 55 | 1015.6 |
| 20260502223424 | 59 | 28 | 7.8 | 13.9 | 0.00 | 0.12 | 0.06 | 55 | 1015.7 |
| 20260502222444 | 58 | 26 | 7.8 | 13.9 | 0.00 | 0.16 | 0.06 | 57 | 1015.8 |
| 20260502221453 | 58 | 46 | 7.0 | 13.0 | 0.00 | 0.20 | 0.06 | 58 | 1016.0 |
| 20260502220440 | 59 | 44 | 6.1 | 13.9 | 0.00 | 0.35 | 0.06 | 56 | 1016.1 |
| 20260502214301 | 60 | 67 | 7.8 | 13.0 | 0.00 | 0.35 | 0.06 | 55 | 1016.4 |
| 20260502212121 | 60 | 90 | 7.8 | 15.6 | 0.00 | 0.35 | 0.06 | 56 | 1016.7 |
| 20260502205955 | 58 | 63 | 8.7 | 16.5 | 0.00 | 0.35 | 0.06 | 61 | 1016.7 |
| 20260502204933 | 56 | 37 | 8.7 | 15.6 | 0.00 | 0.35 | 0.06 | 61 | 1016.9 |
| 20260502203957 | 59 | 68 | 7.0 | 14.8 | 0.00 | 0.35 | 0.06 | 58 | 1017.0 |
| 20260502203008 | 59 | 87 | 7.0 | 16.5 | 0.00 | 0.35 | 0.06 | 56 | 1017.0 |
| 20260502202031 | 58 | 29 | 7.0 | 16.5 | 0.00 | 0.35 | 0.06 | 59 | 1017.1 |
| 20260502192446 | 55 | 53 | 8.7 | 16.5 | 0.00 | 0.35 | 0.06 | 68 | 1017.8 |
| 20260502191442 | 56 | 30 | 8.7 | 17.4 | 0.00 | 0.35 | 0.06 | 66 | 1017.8 |
| 20260502190415 | 55 | 4 | 9.6 | 17.4 | 0.00 | 0.35 | 0.06 | 69 | 1018.0 |
| 20260502185436 | 55 | 359 | 9.6 | 15.6 | 0.00 | 0.35 | 0.06 | 66 | 1018.2 |
| 20260502183350 | 54 | 34 | 10.4 | 18.2 | 0.00 | 0.35 | 0.06 | 70 | 1018.4 |
| 20260502182352 | 54 | 42 | 10.4 | 18.2 | 0.00 | 0.35 | 0.06 | 68 | 1018.4 |
| 20260502181342 | 54 | 353 | 9.6 | 16.5 | 0.00 | 0.35 | 0.06 | 70 | 1018.5 |
| 20260502180314 | 54 | 341 | 8.7 | 15.6 | 0.00 | 0.35 | 0.06 | 71 | 1018.7 |
| 20260502163804 | 49 | 25 | 7.8 | 13.9 | 0.00 | 0.35 | 0.06 | 79 | 1018.5 |
| 20260502162804 | 48 | 341 | 10.4 | 17.4 | 0.00 | 0.35 | 0.06 | 83 | 1018.4 |
| 20260502161818 | 48 | 4 | 10.4 | 17.4 | 0.00 | 0.35 | 0.06 | 84 | 1018.3 |
| 20260502160804 | 47 | 9 | 10.4 | 14.8 | 0.00 | 0.35 | 0.06 | 84 | 1018.2 |
| 20260502150337 | 46 | 359 | 8.7 | 14.8 | 0.00 | 0.35 | 0.06 | 93 | 1017.6 |
| 20260502120729 | 44 | 353 | 3.5 | 8.7 | 0.00 | 0.34 | 0.05 | 96 | 1015.3 |
| 20260502115713 | 44 | 331 | 4.3 | 8.7 | 0.00 | 0.34 | 0.05 | 96 | 1015.0 |
| 20260502114700 | 45 | 335 | 4.3 | 8.7 | 0.00 | 0.34 | 0.05 | 96 | 1015.1 |
| 20260502113722 | 45 | 344 | 3.5 | 7.8 | 0.00 | 0.34 | 0.05 | 96 | 1015.1 |
| 20260502112714 | 45 | 352 | 2.6 | 4.3 | 0.00 | 0.34 | 0.05 | 96 | 1015.2 |
| 20260502111725 | 45 | 348 | 1.7 | 3.5 | 0.00 | 0.34 | 0.05 | 96 | 1015.2 |
| 20260502110658 | 45 | 329 | 2.6 | 5.2 | 0.00 | 0.34 | 0.05 | 96 | 1015.0 |
| 20260502105709 | 45 | 321 | 3.5 | 5.2 | 0.00 | 0.34 | 0.05 | 96 | 1014.8 |
| 20260502102448 | 45 | 345 | 2.6 | 4.3 | 0.00 | 0.34 | 0.05 | 96 | 1014.8 |
| 20260502101446 | 45 | 319 | 1.7 | 3.5 | 0.00 | 0.34 | 0.05 | 96 | 1014.9 |
| 20260502100425 | 45 | 329 | 0.9 | 2.6 | 0.00 | 0.34 | 0.05 | 96 | 1015.0 |
| 20260502091209 | 45 | 340 | 1.7 | 3.5 | 0.00 | 0.34 | 0.05 | 95 | 1014.7 |
| 20260502090145 | 45 | 353 | 1.7 | 2.6 | 0.00 | 0.34 | 0.05 | 95 | 1014.7 |
| 20260502065559 | 46 | 9 | 6.1 | 11.3 | 0.00 | 0.36 | 0.05 | 94 | 1014.2 |
| 20260502064605 | 46 | 353 | 7.8 | 15.6 | 0.04 | 0.36 | 0.05 | 94 | 1014.0 |
| 20260502063604 | 46 | 346 | 8.7 | 15.6 | 0.10 | 0.36 | 0.05 | 94 | 1013.8 |
| 20260502062600 | 47 | 330 | 6.1 | 13.0 | 0.06 | 0.35 | 0.04 | 94 | 1013.4 |
| 20260502061526 | 47 | 38 | 2.6 | 4.3 | 0.09 | 0.33 | 0.03 | 94 | 1014.2 |
| 20260502060500 | 47 | 9 | 4.3 | 9.6 | 0.00 | 0.31 | 0.00 | 94 | 1014.2 |
| 20260502055509 | 47 | 9 | 4.3 | 9.6 | 0.00 | 0.31 | 0.31 | 94 | 1014.0 |
| 20260502054451 | 47 | 344 | 5.2 | 12.2 | 0.00 | 0.31 | 0.31 | 93 | 1013.8 |
| 20260502053502 | 47 | 354 | 7.8 | 13.0 | 0.00 | 0.31 | 0.31 | 92 | 1013.6 |
| 20260502052500 | 47 | 338 | 7.8 | 15.6 | 0.05 | 0.31 | 0.31 | 91 | 1013.5 |
| 20260502051434 | 47 | 359 | 10.4 | 15.6 | 0.09 | 0.31 | 0.31 | 90 | 1013.1 |
| 20260502050407 | 48 | 338 | 5.2 | 9.6 | 0.00 | 0.29 | 0.28 | 88 | 1013.6 |
| 20260502045335 | 49 | 359 | 4.3 | 12.2 | 0.00 | 0.27 | 0.27 | 85 | 1013.7 |
| 20260502044315 | 49 | 4 | 7.8 | 12.2 | 0.00 | 0.27 | 0.27 | 83 | 1013.1 |
| 20260502042125 | 50 | 335 | 5.2 | 9.6 | 0.00 | 0.27 | 0.27 | 77 | 1012.8 |
| 20260502041054 | 51 | 331 | 3.5 | 8.7 | 0.00 | 0.27 | 0.27 | 75 | 1012.7 |
| 20260502040044 | 51 | 292 | 3.5 | 8.7 | 0.00 | 0.27 | 0.27 | 75 | 1012.4 |
| 20260502035108 | 51 | 281 | 5.2 | 10.4 | 0.00 | 0.27 | 0.27 | 75 | 1012.1 |
| 20260502034034 | 51 | 313 | 5.2 | 10.4 | 0.00 | 0.27 | 0.27 | 75 | 1011.7 |
| 20260502030827 | 51 | 317 | 7.0 | 11.3 | 0.00 | 0.27 | 0.27 | 76 | 1011.4 |
| 20260502025843 | 50 | 317 | 6.1 | 11.3 | 0.00 | 0.27 | 0.27 | 78 | 1011.1 |
| 20260502024825 | 50 | 307 | 6.1 | 8.7 | 0.00 | 0.27 | 0.27 | 84 | 1010.9 |
| 20260502023825 | 49 | 313 | 5.2 | 8.7 | 0.00 | 0.27 | 0.27 | 85 | 1010.6 |
| 20260502021632 | 50 | 317 | 7.8 | 11.3 | 0.00 | 0.27 | 0.27 | 83 | 1010.1 |
| 20260502020644 | 50 | 313 | 8.7 | 11.3 | 0.00 | 0.27 | 0.27 | 83 | 1009.7 |
| 20260502012121 | 50 | 317 | 5.2 | 10.4 | 0.00 | 0.27 | 0.27 | 84 | 1009.3 |
| 20260502011054 | 51 | 310 | 5.2 | 9.6 | 0.00 | 0.27 | 0.27 | 86 | 1009.2 |
| 20260502010046 | 51 | 321 | 6.1 | 11.3 | 0.00 | 0.27 | 0.27 | 87 | 1009.2 |
| 20260502005058 | 51 | 288 | 7.0 | 11.3 | 0.00 | 0.27 | 0.27 | 87 | 1009.3 |
| 20260502004043 | 50 | 326 | 5.2 | 10.4 | 0.00 | 0.27 | 0.27 | 87 | 1009.0 |
| 20260502003013 | 51 | 337 | 5.2 | 9.6 | 0.00 | 0.27 | 0.27 | 88 | 1008.9 |
| 20260502002017 | 51 | 314 | 6.1 | 11.3 | 0.04 | 0.27 | 0.27 | 88 | 1008.7 |
| 20260502001009 | 51 | 337 | 7.8 | 11.3 | 0.09 | 0.27 | 0.27 | 90 | 1008.5 |
| 20260502000002 | 50 | 335 | 6.1 | 9.6 | 0.18 | 0.26 | 0.27 | 88 | 1008.5 |